Погода в Арташате

Армения     39°57′23″N   44°32′43″E
темп.,
°C
ветер,
м/с
пор.,
м/с
влажн.,
%
обл.,
%
осадки,
мм/ч
давл.,
гПа
погр.,
м
15 мая, сб
сб1501:00+18ю01460 0.0 101316
04:00+17сз11440 0.0 101411
07:00+18зсз11490 0.0 101533
10:00+23юз11340 0.0 1014664
13:00+28ююв11260 0.0 10121277
16:00+30ююв33210 0.0 10082148
19:00+26ссв233699 0.0 100863
22:00+19зсз11497 0.0 101114
16 мая, вс
вс1601:00+18зюз11515 0.0 101111
04:00+16зсз11573 0.0 101211
07:00+18сз11580 0.0 101349
10:00+23ююв23360 0.0 1012909
13:00+29юв67200 0.0 10091704
16:00+30юв761822 0.0 10062040
19:00+24з574099 0.3 1008172
22:00+19в335213 0.3 101034
17 мая, пн
пн1701:00+17зсз115238 0.0 101015
04:00+16св005458 0.0 101011
07:00+18зсз22550 0.0 101128
10:00+24ююв233311 0.0 1009760
13:00+30юв4521100 0.0 10071522
16:00+22с11105099 0.5 1007280
19:00+26всв123557 0.1 100473
22:00+19св12444 0.1 100515
18 мая, вт
вт1801:00+17сз224999 0.0 100628
04:00+17ссз2242100 0.0 100613
07:00+17зсз33490 0.0 100861
10:00+24сз233314 0.0 1008574
13:00+28сз231922 0.0 10063258
16:00+28ссз432296 0.0 10062520
19:00+26юв12310 0.0 100685
22:00+19с23398 0.1 101023
19 мая, ср
ср1901:00+17сз11515 0.1 101113
04:00+15зсз11580 0.1 101230
07:00+16зюз12550 0.0 101464
10:00+22з11360 0.0 1014593
13:00+27зсз12240 0.0 10121643
16:00+29с23170 0.0 10101910
19:00+28вюв11280 0.0 101020
22:00+22всв22280 0.0 101112